Time,TemperatureF,DewpointF,PressureIn,WindDirection,WindDirectionDegrees,WindSpeedMPH,WindSpeedGustMPH,Humidity,HourlyPrecipIn,Conditions,Clouds,dailyrainin,SoftwareType,DateUTC
2013-06-23 00:06:00,57.0,50.9,29.74,North,0,0.0,-999.0,80,0.00,,,0.00,open2300 v1.10,2013-06-23 07:06:00,
2013-06-23 00:21:00,56.7,50.5,29.74,North,0,0.0,-999.0,80,0.00,,,0.00,open2300 v1.10,2013-06-23 07:21:00,
2013-06-23 00:36:00,56.1,50.7,29.74,North,0,0.0,-999.0,82,0.00,,,0.00,open2300 v1.10,2013-06-23 07:36:00,
2013-06-23 00:51:00,55.8,50.3,29.74,North,0,0.0,-999.0,82,0.00,,,0.00,open2300 v1.10,2013-06-23 07:51:00,
2013-06-23 01:07:00,55.6,50.4,29.73,North,0,0.0,-999.0,83,0.00,,,0.00,open2300 v1.10,2013-06-23 08:07:00,
2013-06-23 01:21:00,55.2,50.1,29.73,North,0,0.0,-999.0,83,0.00,,,0.00,open2300 v1.10,2013-06-23 08:21:00,
2013-06-23 01:36:00,55.0,50.2,29.73,North,0,0.0,-999.0,84,0.00,,,0.00,open2300 v1.10,2013-06-23 08:36:00,
2013-06-23 01:51:00,54.7,49.9,29.73,North,0,0.0,-999.0,84,0.00,,,0.00,open2300 v1.10,2013-06-23 08:51:00,
2013-06-23 02:07:00,54.7,50.2,29.73,North,0,0.0,-999.0,85,0.00,,,0.00,open2300 v1.10,2013-06-23 09:07:00,
2013-06-23 02:21:00,54.5,50.0,29.73,North,0,0.0,-999.0,85,0.00,,,0.00,open2300 v1.10,2013-06-23 09:21:00,
2013-06-23 02:36:00,54.5,50.4,29.73,North,0,0.0,-999.0,86,0.00,,,0.00,open2300 v1.10,2013-06-23 09:36:00,
2013-06-23 02:51:00,54.7,50.5,29.73,North,0,0.0,-999.0,86,0.00,,,0.00,open2300 v1.10,2013-06-23 09:51:00,
2013-06-23 03:07:00,54.7,50.5,29.73,North,0,0.0,-999.0,86,0.00,,,0.00,open2300 v1.10,2013-06-23 10:07:00,
2013-06-23 03:21:00,54.7,50.5,29.73,North,0,0.0,-999.0,86,0.00,,,0.00,open2300 v1.10,2013-06-23 10:21:00,
2013-06-23 03:36:00,54.9,50.7,29.72,North,0,0.0,-999.0,86,0.00,,,0.00,open2300 v1.10,2013-06-23 10:36:00,
2013-06-23 03:51:00,55.2,51.0,29.72,North,0,0.0,-999.0,86,0.00,,,0.00,open2300 v1.10,2013-06-23 10:51:00,
2013-06-23 04:07:00,55.2,51.0,29.72,North,0,0.0,-999.0,86,0.00,,,0.00,open2300 v1.10,2013-06-23 11:07:00,
2013-06-23 04:21:00,55.4,51.2,29.73,North,0,0.0,-999.0,86,0.00,,,0.00,open2300 v1.10,2013-06-23 11:21:00,
2013-06-23 04:36:00,55.6,51.4,29.73,North,0,0.0,-999.0,86,0.00,,,0.00,open2300 v1.10,2013-06-23 11:36:00,
2013-06-23 04:51:00,55.6,51.4,29.73,North,0,0.0,-999.0,86,0.00,,,0.00,open2300 v1.10,2013-06-23 11:51:00,
2013-06-23 05:07:00,55.8,51.9,29.73,North,0,0.0,-999.0,87,0.00,,,0.00,open2300 v1.10,2013-06-23 12:07:00,
2013-06-23 05:21:00,55.8,51.9,29.73,North,0,0.0,-999.0,87,0.00,,,0.00,open2300 v1.10,2013-06-23 12:21:00,
2013-06-23 05:36:00,55.9,52.1,29.73,North,0,0.0,-999.0,87,0.00,,,0.00,open2300 v1.10,2013-06-23 12:36:00,
2013-06-23 05:51:00,55.9,52.1,29.73,North,0,0.0,-999.0,87,0.00,,,0.00,open2300 v1.10,2013-06-23 12:51:00,
2013-06-23 06:07:00,55.9,52.1,29.73,North,0,0.0,-999.0,87,0.00,,,0.00,open2300 v1.10,2013-06-23 13:07:00,
2013-06-23 06:21:00,56.1,52.3,29.73,North,0,0.0,-999.0,87,0.00,,,0.00,open2300 v1.10,2013-06-23 13:21:00,
2013-06-23 06:36:00,56.1,52.3,29.73,North,0,0.0,-999.0,87,0.00,,,0.00,open2300 v1.10,2013-06-23 13:36:00,
2013-06-23 06:51:00,56.5,52.6,29.73,North,0,0.0,-999.0,87,0.00,,,0.00,open2300 v1.10,2013-06-23 13:51:00,
2013-06-23 07:07:00,56.8,53.0,29.73,North,0,0.0,-999.0,87,0.00,,,0.00,open2300 v1.10,2013-06-23 14:07:00,
2013-06-23 07:21:00,56.8,53.0,29.73,North,0,0.0,-999.0,87,0.00,,,0.00,open2300 v1.10,2013-06-23 14:21:00,
2013-06-23 07:36:00,56.8,53.0,29.73,North,0,0.0,-999.0,87,0.00,,,0.00,open2300 v1.10,2013-06-23 14:36:00,
2013-06-23 07:51:00,57.0,52.8,29.73,North,0,0.0,-999.0,86,0.00,,,0.00,open2300 v1.10,2013-06-23 14:51:00,
2013-06-23 08:06:00,57.6,53.4,29.73,North,0,0.0,-999.0,86,0.00,,,0.00,open2300 v1.10,2013-06-23 15:06:00,
2013-06-23 08:21:00,57.9,53.7,29.74,North,0,0.0,-999.0,86,0.00,,,0.00,open2300 v1.10,2013-06-23 15:21:00,
2013-06-23 08:36:00,57.9,53.7,29.74,North,0,0.0,-999.0,86,0.00,,,0.00,open2300 v1.10,2013-06-23 15:36:00,
2013-06-23 08:51:00,57.6,53.4,29.75,North,0,0.0,-999.0,86,0.00,,,0.00,open2300 v1.10,2013-06-23 15:51:00,
2013-06-23 09:06:00,57.4,53.2,29.75,North,0,0.0,-999.0,86,0.00,,,0.00,open2300 v1.10,2013-06-23 16:06:00,
2013-06-23 09:21:00,57.4,53.2,29.76,North,0,0.0,-999.0,86,0.00,,,0.00,open2300 v1.10,2013-06-23 16:21:00,
2013-06-23 09:36:00,57.7,53.6,29.76,North,0,0.0,-999.0,86,0.00,,,0.00,open2300 v1.10,2013-06-23 16:36:00,
2013-06-23 09:51:00,57.9,53.7,29.76,North,0,0.0,-999.0,86,0.00,,,0.00,open2300 v1.10,2013-06-23 16:51:00,
2013-06-23 10:06:00,58.8,54.3,29.76,North,0,0.0,-999.0,85,0.00,,,0.00,open2300 v1.10,2013-06-23 17:06:00,
2013-06-23 10:21:00,59.7,55.2,29.75,North,0,0.0,-999.0,85,0.00,,,0.00,open2300 v1.10,2013-06-23 17:21:00,
2013-06-23 10:36:00,60.6,55.8,29.76,North,0,0.0,-999.0,84,0.00,,,0.00,open2300 v1.10,2013-06-23 17:36:00,
2013-06-23 10:51:00,61.2,56.0,29.76,North,0,0.0,-999.0,83,0.00,,,0.00,open2300 v1.10,2013-06-23 17:51:00,
2013-06-23 11:06:00,61.7,56.5,29.77,North,0,0.0,-999.0,83,0.00,,,0.00,open2300 v1.10,2013-06-23 18:06:00,
2013-06-23 11:21:00,61.7,56.2,29.77,North,0,0.0,-999.0,82,0.00,,,0.00,open2300 v1.10,2013-06-23 18:21:00,
2013-06-23 11:36:00,61.3,55.8,29.76,North,0,0.0,-999.0,82,0.00,,,0.00,open2300 v1.10,2013-06-23 18:36:00,
2013-06-23 11:51:00,61.2,55.7,29.77,North,0,0.0,-999.0,82,0.00,,,0.00,open2300 v1.10,2013-06-23 18:51:00,
2013-06-23 12:06:00,61.3,56.1,29.76,North,0,0.0,-999.0,83,0.00,,,0.00,open2300 v1.10,2013-06-23 19:06:00,
2013-06-23 12:21:00,61.3,56.1,29.76,North,0,0.0,-999.0,83,0.00,,,0.00,open2300 v1.10,2013-06-23 19:21:00,
2013-06-23 12:36:00,61.5,56.3,29.76,North,0,0.0,-999.0,83,0.00,,,0.00,open2300 v1.10,2013-06-23 19:36:00,
2013-06-23 12:51:00,61.9,56.6,29.76,North,0,0.0,-999.0,83,0.00,,,0.00,open2300 v1.10,2013-06-23 19:51:00,
2013-06-23 13:06:00,61.9,56.6,29.76,North,0,0.0,-999.0,83,0.00,,,0.00,open2300 v1.10,2013-06-23 20:06:00,
2013-06-23 13:21:00,62.2,57.0,29.75,North,0,0.0,-999.0,83,0.00,,,0.00,open2300 v1.10,2013-06-23 20:21:00,
2013-06-23 13:36:00,62.8,57.5,29.74,North,0,0.0,-999.0,83,0.00,,,0.00,open2300 v1.10,2013-06-23 20:36:00,
2013-06-23 13:51:00,63.5,57.9,29.74,North,0,0.0,-999.0,82,0.00,,,0.00,open2300 v1.10,2013-06-23 20:51:00,
2013-06-23 14:06:00,64.2,58.6,29.73,North,0,0.0,-999.0,82,0.00,,,0.00,open2300 v1.10,2013-06-23 21:06:00,
2013-06-23 14:21:00,65.1,59.1,29.73,North,0,0.0,-999.0,81,0.00,,,0.00,open2300 v1.10,2013-06-23 21:21:00,
2013-06-23 14:36:00,65.8,59.9,29.74,North,0,0.0,-999.0,81,0.00,,,0.00,open2300 v1.10,2013-06-23 21:36:00,
2013-06-23 14:51:00,65.8,59.5,29.74,North,0,0.0,-999.0,80,0.00,,,0.00,open2300 v1.10,2013-06-23 21:51:00,
2013-06-23 15:06:00,65.8,59.5,29.73,North,0,0.0,-999.0,80,0.00,,,0.00,open2300 v1.10,2013-06-23 22:06:00,
2013-06-23 15:21:00,65.7,59.4,29.73,North,0,0.0,-999.0,80,0.00,,,0.00,open2300 v1.10,2013-06-23 22:21:00,
2013-06-23 15:36:00,66.0,59.7,29.73,North,0,0.0,-999.0,80,0.00,,,0.00,open2300 v1.10,2013-06-23 22:36:00,
2013-06-23 15:51:00,66.0,59.3,29.73,North,0,0.0,-999.0,79,0.00,,,0.00,open2300 v1.10,2013-06-23 22:51:00,
2013-06-23 16:06:00,65.7,59.0,29.73,North,0,0.0,-999.0,79,0.00,,,0.00,open2300 v1.10,2013-06-23 23:06:00,
2013-06-23 16:21:00,65.3,58.6,29.73,North,0,0.0,-999.0,79,0.00,,,0.00,open2300 v1.10,2013-06-23 23:21:00,
2013-06-23 16:36:00,66.2,59.1,29.72,North,0,0.0,-999.0,78,0.00,,,0.00,open2300 v1.10,2013-06-23 23:36:00,
2013-06-23 16:51:00,66.6,59.1,29.73,North,0,0.0,-999.0,77,0.00,,,0.00,open2300 v1.10,2013-06-23 23:51:00,
2013-06-23 17:06:00,66.6,58.8,29.72,North,0,0.0,-999.0,76,0.00,,,0.00,open2300 v1.10,2013-06-24 00:06:00,
2013-06-23 17:21:00,66.4,58.6,29.73,North,0,0.0,-999.0,76,0.00,,,0.00,open2300 v1.10,2013-06-24 00:21:00,
2013-06-23 17:36:00,66.0,58.2,29.72,North,0,0.0,-999.0,76,0.00,,,0.00,open2300 v1.10,2013-06-24 00:36:00,
2013-06-23 17:51:00,66.0,58.2,29.72,North,0,0.0,-999.0,76,0.00,,,0.00,open2300 v1.10,2013-06-24 00:51:00,
2013-06-23 18:06:00,66.4,58.2,29.71,North,0,0.0,-999.0,75,0.00,,,0.00,open2300 v1.10,2013-06-24 01:06:00,
2013-06-23 18:21:00,66.2,58.0,29.71,North,0,0.0,-999.0,75,0.00,,,0.00,open2300 v1.10,2013-06-24 01:21:00,
2013-06-23 18:36:00,66.0,57.5,29.71,North,0,0.0,-999.0,74,0.00,,,0.00,open2300 v1.10,2013-06-24 01:36:00,
2013-06-23 18:51:00,66.2,57.6,29.71,North,0,0.0,-999.0,74,0.00,,,0.00,open2300 v1.10,2013-06-24 01:51:00,
2013-06-23 19:06:00,67.3,58.3,29.71,North,0,0.0,-999.0,73,0.00,,,0.00,open2300 v1.10,2013-06-24 02:06:00,
2013-06-23 19:21:00,67.8,58.5,29.71,North,0,0.0,-999.0,72,0.00,,,0.00,open2300 v1.10,2013-06-24 02:21:00,
2013-06-23 19:36:00,67.1,57.8,29.71,North,0,0.0,-999.0,72,0.00,,,0.00,open2300 v1.10,2013-06-24 02:36:00,
2013-06-23 19:51:00,66.0,57.1,29.71,North,0,0.0,-999.0,73,0.00,,,0.00,open2300 v1.10,2013-06-24 02:51:00,
2013-06-23 20:06:00,65.3,56.4,29.71,North,0,0.0,-999.0,73,0.00,,,0.00,open2300 v1.10,2013-06-24 03:06:00,
2013-06-23 20:21:00,64.6,56.1,29.71,North,0,0.0,-999.0,74,0.00,,,0.00,open2300 v1.10,2013-06-24 03:21:00,
2013-06-23 20:36:00,64.0,55.6,29.71,North,0,0.0,-999.0,74,0.00,,,0.00,open2300 v1.10,2013-06-24 03:36:00,
2013-06-23 20:51:00,63.3,55.2,29.71,North,0,0.0,-999.0,75,0.00,,,0.00,open2300 v1.10,2013-06-24 03:51:00,
2013-06-23 21:06:00,62.8,55.0,29.71,North,0,0.0,-999.0,76,0.00,,,0.00,open2300 v1.10,2013-06-24 04:06:00,
2013-06-23 21:21:00,62.4,54.7,29.71,North,0,0.0,-999.0,76,0.00,,,0.00,open2300 v1.10,2013-06-24 04:21:00,
2013-06-23 21:36:00,62.2,54.9,29.71,North,0,0.0,-999.0,77,0.00,,,0.00,open2300 v1.10,2013-06-24 04:36:00,
2013-06-23 21:51:00,61.9,54.6,29.71,North,0,0.0,-999.0,77,0.00,,,0.00,open2300 v1.10,2013-06-24 04:51:00,
2013-06-23 22:06:00,61.5,54.6,29.71,North,0,0.0,-999.0,78,0.00,,,0.00,open2300 v1.10,2013-06-24 05:06:00,
2013-06-23 22:21:00,61.3,54.5,29.71,North,0,0.0,-999.0,78,0.00,,,0.00,open2300 v1.10,2013-06-24 05:21:00,
2013-06-23 22:36:00,61.0,54.5,29.71,North,0,0.0,-999.0,79,0.00,,,0.00,open2300 v1.10,2013-06-24 05:36:00,
2013-06-23 22:51:00,61.0,54.5,29.71,North,0,0.0,-999.0,79,0.00,,,0.00,open2300 v1.10,2013-06-24 05:51:00,
2013-06-23 23:06:00,61.0,54.5,29.71,North,0,0.0,-999.0,79,0.00,,,0.00,open2300 v1.10,2013-06-24 06:06:00,
2013-06-23 23:21:00,60.6,54.1,29.71,North,0,0.0,-999.0,79,0.00,,,0.00,open2300 v1.10,2013-06-24 06:21:00,
2013-06-23 23:36:00,60.4,54.0,29.71,North,0,0.0,-999.0,79,0.00,,,0.00,open2300 v1.10,2013-06-24 06:36:00,
2013-06-23 23:51:00,59.9,53.4,29.71,North,0,0.0,-999.0,79,0.00,,,0.00,open2300 v1.10,2013-06-24 06:51:00,